• In Österreich
  • Länderverzeichnis
  • Für 7 Tage
  • Wassertemperatur
  • Satellitenkarten
  • Wetterkarte
  • News
  • Widgets
  • user-avatar
    Anmelden

    Stündliche Wetter Port Said

    Heute, 18 Dezember, Montag

    Zeit Temperatur Niederschläge Wind Luftdruck Luftfeuchtigkeit
    00:00 +19°C° 0 mm 3 m/S 764 mmHg 36%
    01:00 +19°C° 0 mm 3 m/S 764 mmHg 37%
    02:00 +19°C° 0 mm 2 m/S 764 mmHg 35%
    03:00 +19°C° 0 mm 2 m/S 764 mmHg 36%
    04:00 +20°C° 0 mm 1 m/S 764 mmHg 36%
    05:00 +20°C° 0 mm 1 m/S 764 mmHg 37%
    06:00 +21°C° 0 mm 1 m/S 764 mmHg 35%
    07:00 +20°C° 0 mm 2 m/S 764 mmHg 34%
    08:00 +21°C° 0 mm 2 m/S 764 mmHg 33%
    09:00 +23°C° 0 mm 1 m/S 764 mmHg 31%
    10:00 +24°C° 0 mm 1 m/S 764 mmHg 29%
    11:00 +23°C° 0 mm 0 m/S 764 mmHg 27%
    12:00 +26°C° 0 mm 1 m/S 764 mmHg 26%
    13:00 +26°C° 0 mm 1 m/S 764 mmHg 24%
    14:00 +27°C° 0 mm 1 m/S 763 mmHg 23%
    15:00 +26°C° 0 mm 2 m/S 763 mmHg 27%
    16:00 +25°C° 0 mm 3 m/S 763 mmHg 31%
    17:00 +24°C° 0 mm 3 m/S 763 mmHg 36%
    18:00 +22°C° 0 mm 3 m/S 764 mmHg 40%
    19:00 +21°C° 0 mm 3 m/S 764 mmHg 45%
    20:00 +21°C° 0 mm 3 m/S 764 mmHg 49%
    21:00 +20°C° 0 mm 3 m/S 764 mmHg 51%
    22:00 +20°C° 0 mm 3 m/S 764 mmHg 52%
    23:00 +20°C° 0 mm 3 m/S 764 mmHg 53%

    Morgen, 19 Dezember, Dienstag

    Zeit Temperatur Niederschläge Wind Luftdruck Luftfeuchtigkeit
    00:00 +20°C° 0 mm 3 m/S 764 mmHg 55%
    01:00 +20°C° 0 mm 3 m/S 764 mmHg 57%
    02:00 +20°C° 0 mm 3 m/S 764 mmHg 59%
    03:00 +20°C° 0 mm 3 m/S 764 mmHg 60%
    04:00 +20°C° 0 mm 4 m/S 764 mmHg 62%
    05:00 +20°C° 0 mm 4 m/S 764 mmHg 64%
    06:00 +20°C° 0 mm 4 m/S 764 mmHg 65%
    07:00 +21°C° 0 mm 5 m/S 764 mmHg 65%
    08:00 +21°C° 0 mm 5 m/S 764 mmHg 66%
    09:00 +22°C° 0 mm 6 m/S 764 mmHg 60%
    10:00 +23°C° 0 mm 6 m/S 764 mmHg 55%
    11:00 +24°C° 0 mm 7 m/S 764 mmHg 50%
    12:00 +24°C° 0 mm 6 m/S 764 mmHg 50%
    13:00 +24°C° 0 mm 6 m/S 763 mmHg 50%
    14:00 +26°C° 0 mm 6 m/S 763 mmHg 50%
    15:00 +24°C° 0 mm 6 m/S 763 mmHg 55%
    16:00 +23°C° 0 mm 6 m/S 763 mmHg 60%
    17:00 +22°C° 0 mm 6 m/S 763 mmHg 65%
    18:00 +22°C° 0 mm 5 m/S 763 mmHg 68%
    19:00 +21°C° 0 mm 5 m/S 763 mmHg 71%
    20:00 +21°C° 0 mm 5 m/S 763 mmHg 74%
    21:00 +21°C° 0 mm 5 m/S 763 mmHg 75%
    22:00 +21°C° 0 mm 5 m/S 763 mmHg 76%
    23:00 +21°C° 0 mm 5 m/S 763 mmHg 77%

    übermorgen, 20 Dezember, Mittwoch

    Zeit Temperatur Niederschläge Wind Luftdruck Luftfeuchtigkeit
    00:00 +21°C° 0 mm 5 m/S 763 mmHg 78%
    01:00 +20°C° 0 mm 5 m/S 763 mmHg 79%
    02:00 +20°C° 0 mm 5 m/S 762 mmHg 80%
    03:00 +20°C° 0 mm 5 m/S 762 mmHg 81%
    04:00 +20°C° 0 mm 5 m/S 762 mmHg 82%
    05:00 +20°C° 0 mm 5 m/S 762 mmHg 83%
    06:00 +20°C° 0 mm 5 m/S 762 mmHg 79%
    07:00 +21°C° 0 mm 4 m/S 762 mmHg 76%
    08:00 +21°C° 0 mm 4 m/S 763 mmHg 73%
    09:00 +22°C° 0 mm 3 m/S 763 mmHg 60%
    10:00 +25°C° 0 mm 3 m/S 763 mmHg 47%
    11:00 +26°C° 0 mm 2 m/S 763 mmHg 34%
    12:00 +26°C° 0 mm 3 m/S 762 mmHg 36%
    13:00 +27°C° 0 mm 3 m/S 762 mmHg 37%
    14:00 +27°C° 0 mm 4 m/S 762 mmHg 39%
    15:00 +26°C° 0 mm 4 m/S 762 mmHg 47%
    16:00 +25°C° 0 mm 4 m/S 762 mmHg 55%
    17:00 +22°C° 0 mm 4 m/S 762 mmHg 62%
    18:00 +22°C° 0 mm 3 m/S 762 mmHg 63%
    19:00 +21°C° 0 mm 3 m/S 763 mmHg 63%
    20:00 +21°C° 0 mm 3 m/S 763 mmHg 63%
    21:00 +21°C° 0 mm 3 m/S 763 mmHg 64%
    22:00 +20°C° 0 mm 2 m/S 763 mmHg 65%
    23:00 +20°C° 0 mm 2 m/S 763 mmHg 65%

    21 Dezember, Donnerstag

    Zeit Temperatur Niederschläge Wind Luftdruck Luftfeuchtigkeit
    00:00 +20°C° 0 mm 2 m/S 763 mmHg 64%
    01:00 +20°C° 0 mm 2 m/S 763 mmHg 64%
    02:00 +20°C° 0 mm 2 m/S 763 mmHg 63%
    03:00 +20°C° 0 mm 2 m/S 763 mmHg 61%
    04:00 +20°C° 0 mm 2 m/S 763 mmHg 59%
    05:00 +20°C° 0 mm 3 m/S 763 mmHg 57%
    06:00 +20°C° 0 mm 2 m/S 763 mmHg 54%
    07:00 +21°C° 0 mm 2 m/S 763 mmHg 51%
    08:00 +21°C° 0 mm 2 m/S 764 mmHg 47%
    09:00 +24°C° 0 mm 2 m/S 764 mmHg 42%
    10:00 +25°C° 0 mm 2 m/S 764 mmHg 36%
    11:00 +26°C° 0 mm 2 m/S 764 mmHg 31%
    12:00 +27°C° 0 mm 2 m/S 763 mmHg 30%
    13:00 +27°C° 0 mm 2 m/S 763 mmHg 28%
    14:00 +28°C° 0 mm 2 m/S 762 mmHg 27%
    15:00 +27°C° 0 mm 3 m/S 762 mmHg 31%
    16:00 +26°C° 0 mm 3 m/S 762 mmHg 34%
    17:00 +25°C° 0 mm 3 m/S 762 mmHg 37%
    18:00 +24°C° 0 mm 3 m/S 763 mmHg 39%
    19:00 +22°C° 0 mm 3 m/S 763 mmHg 41%
    20:00 +22°C° 0 mm 3 m/S 763 mmHg 43%
    21:00 +22°C° 0 mm 3 m/S 763 mmHg 43%
    22:00 +21°C° 0 mm 3 m/S 763 mmHg 43%
    23:00 +21°C° 0 mm 3 m/S 763 mmHg 42%

    22 Dezember, Freitag

    Zeit Temperatur Niederschläge Wind Luftdruck Luftfeuchtigkeit
    00:00 +21°C° 0 mm 3 m/S 763 mmHg 42%
    01:00 +21°C° 0 mm 2 m/S 762 mmHg 41%
    02:00 +21°C° 0 mm 2 m/S 762 mmHg 41%
    03:00 +21°C° 0 mm 2 m/S 762 mmHg 40%
    04:00 +21°C° 0 mm 2 m/S 762 mmHg 40%
    05:00 +21°C° 0 mm 2 m/S 762 mmHg 40%
    06:00 +21°C° 0 mm 2 m/S 762 mmHg 40%
    07:00 +23°C° 0 mm 2 m/S 762 mmHg 40%
    08:00 +23°C° 0 mm 2 m/S 762 mmHg 40%
    09:00 +24°C° 0 mm 2 m/S 762 mmHg 37%
    10:00 +26°C° 0 mm 2 m/S 762 mmHg 35%
    11:00 +27°C° 0 mm 3 m/S 762 mmHg 32%
    12:00 +27°C° 0 mm 3 m/S 762 mmHg 32%
    13:00 +28°C° 0 mm 3 m/S 761 mmHg 32%
    14:00 +28°C° 0 mm 3 m/S 761 mmHg 31%
    15:00 +27°C° 0 mm 3 m/S 761 mmHg 38%
    16:00 +25°C° 0 mm 4 m/S 761 mmHg 45%
    17:00 +23°C° 0 mm 4 m/S 761 mmHg 51%
    18:00 +22°C° 0 mm 4 m/S 761 mmHg 54%
    19:00 +22°C° 0 mm 3 m/S 761 mmHg 56%
    20:00 +21°C° 0 mm 3 m/S 762 mmHg 59%
    21:00 +21°C° 0 mm 3 m/S 761 mmHg 59%
    22:00 +21°C° 0 mm 3 m/S 761 mmHg 60%
    23:00 +21°C° 0 mm 3 m/S 761 mmHg 61%

    23 Dezember, Samstag

    Zeit Temperatur Niederschläge Wind Luftdruck Luftfeuchtigkeit
    00:00 +21°C° 0 mm 3 m/S 761 mmHg 61%
    01:00 +20°C° 0 mm 3 m/S 760 mmHg 61%
    02:00 +20°C° 0 mm 3 m/S 760 mmHg 61%
    03:00 +20°C° 0 mm 4 m/S 760 mmHg 61%
    04:00 +20°C° 0 mm 4 m/S 760 mmHg 61%
    05:00 +20°C° 0 mm 4 m/S 759 mmHg 61%
    06:00 +20°C° 0 mm 4 m/S 760 mmHg 55%
    07:00 +20°C° 0 mm 4 m/S 760 mmHg 50%
    08:00 +21°C° 0 mm 4 m/S 760 mmHg 44%
    09:00 +23°C° 0 mm 4 m/S 760 mmHg 38%
    10:00 +26°C° 0 mm 4 m/S 759 mmHg 32%
    11:00 +28°C° 0 mm 4 m/S 759 mmHg 26%
    12:00 +28°C° 0 mm 4 m/S 758 mmHg 26%
    13:00 +29°C° 0 mm 4 m/S 758 mmHg 25%
    14:00 +30°C° 0 mm 4 m/S 757 mmHg 25%
    15:00 +29°C° 0 mm 4 m/S 757 mmHg 27%
    16:00 +28°C° 0 mm 4 m/S 757 mmHg 30%
    17:00 +27°C° 0 mm 4 m/S 757 mmHg 32%
    18:00 +26°C° 0 mm 5 m/S 757 mmHg 35%
    19:00 +25°C° 0 mm 5 m/S 757 mmHg 38%
    20:00 +24°C° 0 mm 6 m/S 756 mmHg 41%
    21:00 +23°C° 0 mm 6 m/S 756 mmHg 42%
    22:00 +23°C° 0 mm 6 m/S 756 mmHg 43%
    23:00 +23°C° 0 mm 7 m/S 755 mmHg 44%
    Mehr zeigen